CW9086 Weather Reports


Display with metric or nautical units.
time (UTC)temp
F
wind
direction
speed
MPH
gust
MPH
rain 1hr
in
rain 24hr
in
rain mn
in
humidity
%
barometer
mb
20260901083104 58 212 0.0 0.0 0.00 0.00 0.00 88 1009.0
20260901082604 58 212 0.0 0.0 0.00 0.00 0.00 88 1009.0
20260901082104 58 212 0.0 0.0 0.00 0.00 0.00 88 1009.1
20260901081605 58 212 0.0 0.0 0.00 0.00 0.00 88 1009.1
20260901081104 57 212 0.0 0.0 0.00 0.00 0.00 87 1009.0
20260901080104 57 212 0.0 0.0 0.00 0.00 0.00 87 1008.9
20260901075605 57 212 0.0 0.0 0.00 0.00 0.00 87 1008.9
20260901075105 57 212 0.0 0.0 0.00 0.00 0.00 87 1008.8
20260901074605 57 212 0.0 0.0 0.00 0.00 0.00 87 1008.7
20260901074106 57 212 0.0 0.0 0.00 0.00 0.00 87 1008.8
20260901073106 56 212 0.0 0.0 0.00 0.00 0.00 87 1008.7
20260901072604 56 212 0.0 0.0 0.00 0.00 0.00 86 1008.7
20260901072105 56 212 0.0 0.0 0.00 0.00 0.00 86 1008.6
20260901071604 56 212 0.0 0.0 0.00 0.00 0.00 86 1008.7
20260901071108 56 212 0.0 0.0 0.00 0.00 0.00 86 1008.6
20260901065605 55 212 0.0 0.0 0.00 0.00 0.00 85 1008.5
20260901065104 55 212 0.0 0.0 0.00 0.00 0.00 85 1008.5
20260901064105 55 212 0.0 0.0 0.00 0.00 0.00 84 1008.6
20260901063604 55 212 0.0 0.0 0.00 0.00 0.00 84 1008.5
20260901063104 55 212 0.0 0.0 0.00 0.00 0.00 84 1008.5
20260901062605 55 212 0.0 0.0 0.00 0.00 0.00 84 1008.5
20260901062104 55 212 0.0 0.0 0.00 0.00 0.00 84 1008.5
20260901061604 55 212 0.0 0.0 0.00 0.00 0.00 84 1008.5
20260901060605 56 212 0.0 0.0 0.00 0.00 0.00 83 1008.6
20260901060104 56 212 0.0 0.0 0.00 0.00 0.00 83 1008.6
20260901055606 56 212 0.0 0.0 0.00 0.00 0.00 83 1008.6
20260901055104 56 212 0.0 0.0 0.00 0.00 0.00 83 1008.7
20260901054606 56 212 0.0 0.0 0.00 0.00 0.00 83 1008.7
20260901054104 56 212 0.0 0.0 0.00 0.00 0.00 83 1008.6
20260901053104 56 212 0.0 0.0 0.00 0.00 0.00 83 1008.6
20260901052604 56 212 0.0 0.0 0.00 0.00 0.00 83 1008.6
20260901052105 57 212 0.0 0.0 0.00 0.00 0.00 83 1008.5
20260901051605 57 212 0.0 0.0 0.00 0.00 0.00 83 1008.4
20260901051105 57 212 0.0 0.0 0.00 0.00 0.00 82 1008.3
20260901050604 57 212 0.0 0.0 0.00 0.00 0.00 82 1008.4
20260901050104 57 212 0.0 0.0 0.00 0.00 0.00 83 1008.4
20260901045604 57 212 0.0 0.0 0.00 0.00 0.00 83 1008.4
20260901045104 57 212 0.0 0.0 0.00 0.00 0.00 82 1008.4
20260901044604 58 212 0.0 0.0 0.00 0.00 0.00 82 1008.4
20260901044104 58 212 0.0 0.0 0.00 0.00 0.00 82 1008.4
20260901043604 58 212 0.0 0.0 0.00 0.00 0.00 82 1008.4
20260901043105 58 212 0.0 0.0 0.00 0.00 0.00 82 1008.4
20260901042604 58 212 0.0 0.0 0.00 0.00 0.00 82 1008.4
20260901042104 58 212 0.0 0.0 0.00 0.00 0.00 82 1008.4
20260901041604 58 212 0.0 0.0 0.00 0.00 0.00 82 1008.3
20260901041104 59 212 0.0 0.0 0.00 0.00 0.00 82 1008.2
20260901040605 59 212 0.0 0.0 0.00 0.00 0.00 82 1008.1
20260901040104 59 212 0.0 0.0 0.00 0.00 0.00 82 1008.2
20260901034605 60 212 0.0 0.0 0.00 0.00 0.00 82 1008.0
20260901034105 60 212 0.0 0.0 0.00 0.00 0.00 82 1007.9
20260901033604 60 212 0.0 0.0 0.00 0.00 0.00 82 1007.9
20260901033104 60 212 0.0 0.0 0.00 0.00 0.00 82 1007.7
20260901032604 61 212 0.0 0.0 0.00 0.00 0.00 82 1007.8
20260901032104 61 212 0.0 0.0 0.00 0.00 0.00 82 1007.7
20260901031606 61 212 0.0 0.0 0.00 0.00 0.00 82 1007.7
20260901031104 61 212 0.0 0.0 0.00 0.00 0.00 82 1007.7
20260901030604 61 212 0.0 0.0 0.00 0.00 0.00 82 1007.7
20260901030104 62 212 0.0 0.0 0.00 0.00 0.00 82 1007.7
20260901025605 62 212 0.0 0.0 0.00 0.00 0.00 82 1007.7
20260901025104 62 212 0.0 0.0 0.00 0.00 0.00 82 1007.7
20260901024104 62 212 0.0 0.0 0.00 0.00 0.00 82 1007.7
20260901023605 62 212 0.0 0.0 0.00 0.00 0.00 82 1007.8
20260901023104 62 212 0.0 0.0 0.00 0.00 0.00 82 1007.8
20260901022604 63 212 0.0 1.0 0.00 0.00 0.00 82 1007.6
20260901022104 63 212 0.0 2.0 0.00 0.00 0.00 82 1007.6
20260901021604 63 212 0.0 2.0 0.00 0.00 0.00 82 1007.7
20260901020603 63 212 0.0 2.0 0.00 0.00 0.00 82 1007.8
20260901015604 63 212 0.0 2.0 0.00 0.00 0.00 81 1007.9
20260901015103 63 212 0.0 2.0 0.00 0.00 0.00 81 1008.0
20260901014107 64 212 0.0 2.0 0.00 0.00 0.00 80 1008.0
20260901013605 64 212 0.0 3.0 0.00 0.00 0.00 80 1008.0
20260901013105 64 212 0.0 3.0 0.00 0.00 0.00 80 1008.0
20260901012605 64 212 1.0 3.0 0.00 0.00 0.00 80 1007.9
20260901012103 64 213 1.0 3.0 0.00 0.00 0.00 79 1007.9
20260901011104 65 213 0.0 5.0 0.00 0.00 0.00 79 1007.9
20260901010104 65 211 0.0 3.0 0.00 0.00 0.00 78 1007.9
20260901005604 66 210 1.0 5.0 0.00 0.00 0.00 78 1007.9
20260901005105 66 195 0.0 5.0 0.00 0.00 0.00 77 1007.9
20260901004604 66 211 1.0 5.0 0.00 0.00 0.00 77 1008.0
20260901004106 66 210 0.0 3.0 0.00 0.00 0.00 77 1008.0
20260901003604 66 211 2.0 3.0 0.00 0.00 0.00 77 1008.0
20260901002605 66 211 0.0 3.0 0.00 0.00 0.00 77 1007.9
20260901001606 67 209 1.0 3.0 0.00 0.00 0.00 77 1008.0
20260901001105 67 212 1.0 3.0 0.00 0.00 0.00 77 1008.0
20260901000604 67 212 0.0 3.0 0.00 0.00 0.00 76 1008.0
20260901000104 67 212 0.0 2.0 0.00 0.00 0.00 77 1008.1
20260831235605 67 212 1.0 5.0 0.00 0.00 0.00 77 1008.1
20260831235104 67 212 0.0 5.0 0.00 0.00 0.00 77 1008.1
20260831234604 67 215 2.0 5.0 0.00 0.00 0.00 77 1008.1
20260831233605 67 210 1.0 3.0 0.00 0.00 0.00 77 1008.1
20260831233105 67 207 1.0 6.0 0.00 0.00 0.00 77 1008.1
20260831232605 67 212 2.0 6.0 0.00 0.00 0.00 76 1008.1
20260831232104 67 213 2.0 9.0 0.00 0.00 0.00 76 1008.1
20260831231605 67 212 1.0 9.0 0.00 0.00 0.00 76 1008.0
20260831231104 67 210 1.0 8.0 0.00 0.00 0.00 77 1007.9
20260831230105 67 213 2.0 9.0 0.00 0.00 0.00 77 1008.0
20260831225606 67 211 1.0 9.0 0.00 0.00 0.00 77 1008.1
20260831225105 67 210 3.0 9.0 0.00 0.00 0.00 76 1008.1
20260831224604 67 210 0.0 3.0 0.00 0.00 0.00 76 1008.1
20260831224105 67 211 0.0 3.0 0.00 0.00 0.00 76 1008.1
20260831223604 67 210 1.0 3.0 0.00 0.00 0.00 76 1008.2
20260831223105 67 212 2.0 6.0 0.00 0.00 0.00 76 1008.1
20260831222605 67 210 2.0 6.0 0.00 0.00 0.00 76 1008.0
20260831222105 67 210 2.0 6.0 0.00 0.00 0.00 76 1008.1
20260831221605 68 214 2.0 6.0 0.00 0.00 0.00 76 1008.0
20260831221104 68 212 2.0 6.0 0.00 0.00 0.00 76 1008.2
20260831220605 68 212 1.0 6.0 0.00 0.00 0.00 76 1008.2
20260831220104 68 209 1.0 7.0 0.00 0.00 0.00 76 1008.1
20260831215604 68 211 1.0 8.0 0.00 0.00 0.00 76 1008.1
20260831215104 68 210 3.0 8.0 0.00 0.00 0.00 76 1008.1
20260831214605 68 212 2.0 8.0 0.00 0.00 0.00 76 1008.2
20260831214105 68 208 2.0 8.0 0.00 0.00 0.00 77 1008.3
20260831213604 68 212 3.0 10.0 0.00 0.00 0.00 77 1008.3
20260831213105 68 211 4.0 10.0 0.00 0.00 0.00 76 1008.3
20260831212605 68 213 2.0 10.0 0.00 0.00 0.00 77 1008.3
20260831211605 69 212 3.0 7.0 0.00 0.00 0.00 76 1008.3
20260831211104 69 211 2.0 6.0 0.00 0.00 0.00 77 1008.4
20260831210104 69 212 3.0 10.0 0.00 0.00 0.00 76 1008.5
20260831205604 69 212 1.0 10.0 0.00 0.00 0.00 76 1008.5
20260831205104 69 198 1.0 7.0 0.00 0.00 0.00 76 1008.6
20260831204604 69 212 2.0 7.0 0.00 0.00 0.00 76 1008.6
20260831204105 69 212 1.0 12.0 0.00 0.00 0.00 76 1008.5
20260831202606 69 213 3.0 9.0 0.00 0.00 0.00 76 1008.6
20260831202104 69 214 1.0 9.0 0.00 0.00 0.00 76 1008.7
20260831201605 69 212 2.0 9.0 0.00 0.00 0.00 76 1008.7
20260831201106 69 213 3.0 9.0 0.00 0.00 0.00 76 1008.8
20260831200604 69 215 3.0 8.0 0.00 0.00 0.00 76 1008.8
20260831200105 69 214 3.0 8.0 0.00 0.00 0.00 75 1008.9
20260831195604 69 211 2.0 13.0 0.00 0.00 0.00 75 1009.0
20260831195104 69 213 1.0 13.0 0.00 0.00 0.00 75 1009.1
20260831194604 69 214 3.0 10.0 0.00 0.00 0.00 75 1009.0
20260831193604 70 213 3.0 9.0 0.00 0.00 0.00 73 1009.0
20260831192604 72 212 2.0 7.0 0.00 0.00 0.00 71 1009.2
20260831192105 73 210 1.0 6.0 0.00 0.00 0.00 71 1009.1
20260831191104 73 224 1.0 5.0 0.00 0.00 0.00 68 1009.2
20260831190606 72 212 2.0 9.0 0.00 0.00 0.00 67 1009.2
20260831190106 72 212 2.0 9.0 0.00 0.00 0.00 67 1009.3
20260831185604 71 216 3.0 9.0 0.00 0.00 0.00 69 1009.4
20260831185104 71 214 1.0 6.0 0.00 0.00 0.00 71 1009.4
20260831184104 70 215 2.0 8.0 0.00 0.00 0.00 69 1009.5
20260831183604 70 213 3.0 8.0 0.00 0.00 0.00 68 1009.5
20260831183104 70 213 2.0 8.0 0.00 0.00 0.00 69 1009.5
20260831182604 70 212 3.0 8.0 0.00 0.00 0.00 68 1009.6
20260831182104 70 212 2.0 8.0 0.00 0.00 0.00 68 1009.6
20260831181604 70 212 2.0 6.0 0.00 0.00 0.00 68 1009.7
20260831180604 70 214 2.0 9.0 0.00 0.00 0.00 69 1009.8
20260831180104 69 217 3.0 9.0 0.00 0.00 0.00 68 1009.8
20260831175604 69 215 2.0 6.0 0.00 0.00 0.00 68 1009.8
20260831175105 69 212 1.0 8.0 0.00 0.00 0.00 67 1009.9
20260831174604 69 213 2.0 12.0 0.00 0.00 0.00 67 1009.9
20260831173604 69 213 2.0 8.0 0.00 0.00 0.00 68 1010.0
20260831173105 68 215 2.0 8.0 0.00 0.00 0.00 69 1009.9
20260831172604 68 216 1.0 8.0 0.00 0.00 0.00 70 1009.9
20260831172104 68 216 2.0 8.0 0.00 0.00 0.00 71 1009.9
20260831171104 67 212 1.0 9.0 0.00 0.00 0.00 71 1009.9
20260831170604 67 212 3.0 9.0 0.00 0.00 0.00 70 1010.0
20260831170104 66 217 2.0 9.0 0.00 0.00 0.00 71 1010.0
20260831165604 66 214 2.0 9.0 0.00 0.00 0.00 71 1010.1
20260831164606 66 215 2.0 9.0 0.00 0.00 0.00 72 1010.2
20260831163604 65 215 2.0 6.0 0.00 0.00 0.00 73 1010.3
20260831163104 65 214 2.0 6.0 0.00 0.00 0.00 74 1010.4
20260831162604 64 214 2.0 5.0 0.00 0.00 0.00 75 1010.4
20260831161603 63 217 2.0 8.0 0.00 0.00 0.00 79 1010.4
20260831161104 63 213 1.0 6.0 0.00 0.00 0.00 81 1010.5
20260831160604 62 213 2.0 6.0 0.00 0.00 0.00 83 1010.5
20260831160104 61 212 2.0 5.0 0.00 0.00 0.00 85 1010.6
20260831155605 61 216 2.0 8.0 0.00 0.00 0.00 86 1010.5
20260831155105 60 212 1.0 8.0 0.00 0.00 0.00 87 1010.7
20260831154604 60 217 1.0 5.0 0.00 0.00 0.00 89 1010.7
20260831154104 60 219 1.0 5.0 0.00 0.00 0.00 89 1010.7
20260831153604 59 219 1.0 3.0 0.00 0.00 0.00 90 1010.6
20260831153104 59 213 1.0 3.0 0.00 0.00 0.00 90 1010.7
20260831152604 59 216 1.0 3.0 0.00 0.00 0.00 90 1010.7
20260831152106 59 215 2.0 3.0 0.00 0.00 0.00 91 1010.6
20260831151603 58 216 0.0 6.0 0.00 0.00 0.00 90 1010.7
20260831150604 58 214 1.0 6.0 0.00 0.00 0.00 91 1010.6
20260831150105 57 213 1.0 5.0 0.00 0.00 0.00 91 1010.6
20260831145604 57 213 1.0 5.0 0.00 0.00 0.00 91 1010.6
20260831145103 57 214 1.0 3.0 0.00 0.00 0.00 91 1010.6
20260831144605 56 213 0.0 3.0 0.00 0.00 0.00 91 1010.7
20260831144105 56 214 0.0 3.0 0.00 0.00 0.00 90 1010.7
20260831143604 55 214 0.0 2.0 0.00 0.00 0.00 90 1010.6
20260831143104 55 214 0.0 2.0 0.00 0.00 0.00 90 1010.7
20260831142105 55 214 0.0 2.0 0.00 0.00 0.00 90 1010.9
20260831141104 55 214 0.0 1.0 0.00 0.00 0.00 89 1011.0
20260831140605 55 214 0.0 1.0 0.00 0.00 0.00 89 1011.1
20260831140104 55 214 0.0 1.0 0.00 0.00 0.00 89 1011.1
20260831134604 55 214 0.0 1.0 0.00 0.00 0.00 90 1011.2
20260831134105 55 214 0.0 1.0 0.00 0.00 0.00 90 1011.2
20260831133604 55 214 0.0 1.0 0.00 0.00 0.00 89 1011.1
20260831132605 55 214 0.0 2.0 0.00 0.00 0.00 90 1011.2
20260831132104 55 214 0.0 2.0 0.00 0.00 0.00 90 1011.2
20260831131603 55 214 0.0 2.0 0.00 0.00 0.00 90 1011.2
20260831131104 55 214 0.0 2.0 0.00 0.00 0.00 90 1011.2
20260831130604 56 214 0.0 2.0 0.00 0.00 0.00 90 1011.2
20260831130104 56 214 0.0 1.0 0.00 0.00 0.00 89 1011.3
20260831125605 56 214 0.0 2.0 0.00 0.00 0.00 89 1011.3
20260831125104 56 214 0.0 3.0 0.00 0.00 0.00 89 1011.3
20260831124604 56 214 0.0 3.0 0.00 0.00 0.00 89 1011.4
20260831124105 56 214 0.0 1.0 0.00 0.00 0.00 89 1011.4
20260831123604 56 214 0.0 1.0 0.00 0.00 0.00 90 1011.5
20260831123106 56 214 0.0 1.0 0.00 0.00 0.00 90 1011.5
20260831122604 56 214 0.0 1.0 0.00 0.00 0.00 90 1011.6
20260831121604 56 214 0.0 2.0 0.00 0.00 0.00 90 1011.7
20260831121103 56 214 1.0 3.0 0.00 0.00 0.00 90 1011.7
20260831120604 56 214 0.0 3.0 0.00 0.00 0.00 90 1011.8
20260831115604 56 214 1.0 2.0 0.00 0.00 0.00 89 1011.9
20260831115103 56 214 0.0 2.0 0.00 0.00 0.00 89 1011.8
20260831114604 56 214 0.0 3.0 0.00 0.00 0.00 89 1011.8
20260831114104 56 214 0.0 3.0 0.00 0.00 0.00 89 1011.8
20260831113604 56 213 0.0 3.0 0.00 0.00 0.00 89 1011.9
20260831113103 56 213 0.0 3.0 0.00 0.00 0.00 89 1012.0
20260831112603 56 213 0.0 2.0 0.00 0.00 0.00 89 1011.9
20260831112106 56 213 0.0 2.0 0.00 0.00 0.00 89 1012.0
20260831110604 56 213 0.0 1.0 0.00 0.00 0.00 89 1012.2
20260831105605 56 213 0.0 0.0 0.00 0.00 0.00 88 1012.2
20260831105103 56 213 0.0 0.0 0.00 0.00 0.00 89 1012.2
20260831104605 56 213 0.0 1.0 0.00 0.00 0.00 88 1012.3
20260831104105 56 213 0.0 1.0 0.00 0.00 0.00 88 1012.4
20260831102604 56 213 0.0 0.0 0.00 0.00 0.00 89 1012.5
20260831102104 56 213 0.0 1.0 0.00 0.00 0.00 89 1012.4
20260831101603 56 213 0.0 1.0 0.00 0.00 0.00 89 1012.5
20260831101107 56 213 0.0 1.0 0.00 0.00 0.00 88 1012.5
20260831100606 56 213 0.0 1.0 0.00 0.00 0.00 88 1012.5
20260831095607 57 213 0.0 1.0 0.00 0.00 0.00 88 1012.7
20260831095107 57 213 0.0 1.0 0.00 0.00 0.00 88 1012.8
20260831094607 57 213 0.0 1.0 0.00 0.00 0.00 88 1012.9
20260831094106 57 213 0.0 1.0 0.00 0.00 0.00 88 1013.0
20260831093606 57 213 0.0 1.0 0.00 0.00 0.00 88 1012.9
20260831093106 57 213 0.0 1.0 0.00 0.00 0.00 88 1013.0
20260831092606 57 213 0.0 1.0 0.00 0.00 0.00 88 1013.0
20260831092106 57 213 0.0 1.0 0.00 0.00 0.00 88 1013.2
20260831091605 57 213 0.0 1.0 0.00 0.00 0.00 88 1013.2
20260831091106 57 213 0.0 3.0 0.00 0.00 0.00 88 1013.4
20260831090606 57 213 0.0 3.0 0.00 0.00 0.00 88 1013.4
20260831085606 58 213 0.0 2.0 0.00 0.00 0.00 88 1013.4
20260831085107 58 213 0.0 2.0 0.00 0.00 0.00 88 1013.4
20260831084605 58 213 1.0 2.0 0.00 0.00 0.00 88 1013.5
20260831084107 58 213 1.0 2.0 0.00 0.00 0.00 88 1013.6